Regional Weather Roundup
Issued by NWS

Home | Current Version | Previous Version | Text Only | Print | Product List | Glossary On
Versions: 1 2 3 4 5 6 7 8 9 10 11 12 13 14 15 16 17 18 19 20 21 22 23 24 25 26 27 28 29 30 31 32 33 34 35 36 37 38 39 40 41 42 43 44 45 46 47 48 49 50
000
ASUS45 KABQ 131710
RWRNM
NEW MEXICO REGIONAL WEATHER ROUNDUP
NATIONAL WEATHER SERVICE ALBUQUERQUE NM
1000 AM MST SAT FEB 13 2016

NOTE: "FAIR" MEANS FEW OR NO CLOUDS BELOW 12,000 FEET AGL WITH NO
       SIGNIFICANT WEATHER OR OBSTRUCTIONS TO VISION.

      THIS PRODUCT IS RELEASED AS TWO VERSIONS.  ONE VERSION NEAR
      THE TOP OF THE HOUR CONTAINING PRELIMINARY DATA FROM ALBUQUERQUE
      AND OTHER STATIONS.  A FINAL VERSION WITH ADDITIONAL DATA IS
      ISSUED ABOUT 10 MINUTES AFTER THE HOUR.

NMZ501-503-504-510>518-131800-
NORTHWEST PLATEAU/NORTHCENTRAL MOUNTAINS

CITY           SKY/WX    TMP DP  RH WIND       PRES   REMARKS
FARMINGTON     FAIR      42  28  57 SE7       30.28F
LOS ALAMOS     FAIR      45  24  44 E5        30.32F
SANTA FE       FAIR      51  23  33 CALM      30.29F
TAOS           FAIR      43  27  52 CALM      30.32F
ANGEL FIRE     FAIR      45  19  36 CALM      30.32F

$$
NMZ402-403-502-505>509-131800-
WESTCENTRAL MOUNTAINS/SOUTHWEST MOUNTAINS

CITY           SKY/WX    TMP DP  RH WIND       PRES   REMARKS
GALLUP         FAIR      44  24  45 CALM      30.32F
GRANTS         FAIR      43  16  34 N5        30.34F
SILVER CITY      N/A     63   9  12 SE6       30.31S

$$
NMZ407-409-411-412-131800-
SOUTHERN DESERTS

CITY           SKY/WX    TMP DP  RH WIND       PRES   REMARKS
LORDSBURG      FAIR      59  19  21 SE10      30.25F
DEMING         FAIR      59  15  18 E8        30.27S
LAS CRUCES     FAIR      60  13  15 SE7       30.28F
HOLLOMAN AFB   FAIR      56  15  19 SE3       30.26F
ALAMOGORDO     FAIR      55  16  21 CALM      30.28S
T OR C         FAIR      55  12  18 NE6       30.28F

$$
NMZ519>523-131800-
CENTRAL VALLEYS/CENTRAL HIGHLANDS

CITY           SKY/WX    TMP DP  RH WIND       PRES   REMARKS
ALBUQUERQUE    FAIR      48  22  35 W3        30.30F
DOUBLE EAGLE   MOSUNNY   50  23  34 CALM      30.31F
MORIARTY ARPT  FAIR      47  22  36 CALM      30.31F
CLINES CORNERS FAIR      54  16  22 SW16      30.29F
BELEN          FAIR      47  21  35 CALM      30.30F
SOCORRO        FAIR      49  15  26 N7        30.30F

$$
NMZ524>526-539-540-131800-
SOUTHCENTRAL MOUNTAINS

CITY           SKY/WX    TMP DP  RH WIND       PRES   REMARKS
RUIDOSO          N/A     54  18  24 N5        30.34F

$$
NMZ527>531-131800-
NORTHEAST HIGHLANDS/NORTHEAST PLAINS

CITY           SKY/WX    TMP DP  RH WIND       PRES   REMARKS
LAS VEGAS      FAIR      61  15  16 SW16      30.25F
RATON          FAIR      47  25  42 E5        30.20F
CLAYTON        FAIR      58  23  26 SW21G30   30.13F

$$
NMZ532>537-131800-
EASTCENTRAL PLAINS

CITY           SKY/WX    TMP DP  RH WIND       PRES   REMARKS
TUCUMCARI      FAIR      58  30  34 SW16      30.20F
CANNON AFB     FAIR      52  33  48 S16       30.26F
CLOVIS AIRPORT FAIR      50  34  53 S18       30.28S

$$
NMZ028-029-538-131800-
SOUTHEAST PLAINS

CITY           SKY/WX    TMP DP  RH WIND       PRES   REMARKS
ROSWELL        FAIR      50  29  44 S5        30.26F
ARTESIA        FAIR      48  32  53 SE7       30.27F
CARLSBAD       FAIR      52  31  44 CALM      30.27F
HOBBS          SUNNY     55  36  47 SE13      30.29F


$$




USA.gov is the U.S. government's official web portal to all federal, state and local government web resources and services.